Tracking 18850 objects as of 22-Nov-2017
HD Live streaming from Space Station
objects crossing your sky now

FENGYUN 1C DEB

Track FENGYUN 1C DEB now!
10-day predictions


NORAD ID: 31959
Int'l Code: 1999-025CNL
Perigee: 806.7 km
Apogee: 867.9 km
Inclination: 98.6 °
Period: 101.5 minutes
Semi major axis: 7208 km
RCS: 0.0084 m2 (small)
Launch date: May 10, 1999
Source: People's Republic of China (PRC)
Launch site: Taiyaun Space Center, China (TSC)

Note: This is SATELLITE DEBRIS
aabbcc
Your satellite tracking list
Your tracking list is empty




NASA's NSSDC Master Catalog

Two Line Element Set (TLE):
1 31959U 99025CNL 17325.95043847 +.00001375 +00000-0 +67832-3 0  9995
2 31959 098.6369 219.9125 0042446 102.0188 258.5750 14.18590064224276
Source of the keplerian elements: AFSPC